contact: severine.martini@mio.osupytheas.fr, dominique.lefevre@mio.osupytheas.fr
Project:EMSO Ligure-ouest http://www.emso-fr.org/EMSO-France
Sensor Microcat Sea-Bird SBE37 SMP,  Serial 57510 
DOI : "https://doi.org/10.17882/97948" 
Title:EMSO Ligure Ouest : Data Bathybot capteur Microcat - deploiement 2023-04-28
Datetime,Profondeur,Latitude,Longitude,Temperature,Conductivite,Pression,Salinite
time,m,degree_north,degree_east,degree_C,S/m,db,PSU 
2023-11-27T00:00:49,2420,42.8014,5.9826,13.2977,4.41694,2453.582,36.7737
2023-11-27T00:03:49,2420,42.8014,5.9826,13.2970,4.41658,2453.559,36.7709
2023-11-27T00:06:49,2420,42.8014,5.9826,13.2972,4.41728,2453.604,36.7773
2023-11-27T00:09:49,2420,42.8014,5.9826,13.2974,4.41727,2453.567,36.7770
2023-11-27T00:12:49,2420,42.8014,5.9826,13.2970,4.41729,2453.567,36.7776
2023-11-27T00:15:49,2420,42.8014,5.9826,13.2974,4.41745,2453.604,36.7787
2023-11-27T00:18:49,2420,42.8014,5.9826,13.2974,4.41772,2453.627,36.7812
2023-11-27T00:21:49,2420,42.8014,5.9826,13.2974,4.41734,2453.582,36.7776
2023-11-27T00:24:49,2420,42.8014,5.9826,13.2975,4.41810,2453.559,36.7847
2023-11-27T00:27:49,2420,42.8014,5.9826,13.2968,4.41814,2453.582,36.7858
2023-11-27T00:30:49,2420,42.8014,5.9826,13.2975,4.41811,2453.582,36.7849
2023-11-27T00:33:49,2420,42.8014,5.9826,13.2972,4.41818,2453.582,36.7858
2023-11-27T00:36:49,2420,42.8014,5.9826,13.2973,4.41822,2453.604,36.7860
2023-11-27T00:39:49,2420,42.8014,5.9826,13.2974,4.41817,2453.559,36.7855
2023-11-27T00:42:49,2420,42.8014,5.9826,13.2973,4.41834,2453.582,36.7871
2023-11-27T00:45:49,2420,42.8014,5.9826,13.2970,4.41847,2453.582,36.7886
2023-11-27T00:48:49,2420,42.8014,5.9826,13.2973,4.41849,2453.582,36.7885
2023-11-27T00:51:49,2420,42.8014,5.9826,13.2970,4.41878,2453.604,36.7915
2023-11-27T00:54:49,2420,42.8014,5.9826,13.2973,4.41879,2453.582,36.7913
2023-11-27T00:57:49,2420,42.8014,5.9826,13.2977,4.41910,2453.582,36.7939
2023-11-27T01:00:49,2420,42.8014,5.9826,13.2974,4.41929,2453.559,36.7959
2023-11-27T01:03:49,2420,42.8014,5.9826,13.2973,4.41846,2453.604,36.7882
2023-11-27T01:06:49,2420,42.8014,5.9826,13.2971,4.41864,2453.582,36.7901
2023-11-27T01:09:49,2420,42.8014,5.9826,13.2973,4.41966,2453.582,36.7995
2023-11-27T01:12:49,2420,42.8014,5.9826,13.2972,4.41959,2453.582,36.7990
2023-11-27T01:15:49,2420,42.8014,5.9826,13.2971,4.41978,2453.582,36.8008
2023-11-27T01:18:49,2420,42.8014,5.9826,13.2973,4.41978,2453.582,36.8006
2023-11-27T01:21:49,2420,42.8014,5.9826,13.2975,4.41979,2453.604,36.8005
2023-11-27T01:24:50,2420,42.8014,5.9826,13.2973,4.42025,2453.567,36.8051
2023-11-27T01:27:49,2420,42.8014,5.9826,13.2971,4.42044,2453.604,36.8070
2023-11-27T01:30:49,2420,42.8014,5.9826,13.2971,4.42103,2453.567,36.8125
2023-11-27T01:33:49,2420,42.8014,5.9826,13.2973,4.42091,2453.582,36.8112
2023-11-27T01:36:49,2420,42.8014,5.9826,13.2972,4.42119,2453.567,36.8140
2023-11-27T01:39:49,2420,42.8014,5.9826,13.2973,4.42125,2453.604,36.8144
2023-11-27T01:42:49,2420,42.8014,5.9826,13.2974,4.42072,2453.582,36.8094
2023-11-27T01:45:49,2420,42.8014,5.9826,13.2974,4.42199,2453.582,36.8212
2023-11-27T01:48:49,2420,42.8014,5.9826,13.2973,4.42177,2453.582,36.8193
2023-11-27T01:51:50,2420,42.8014,5.9826,13.2973,4.42185,2453.604,36.8201
2023-11-27T01:54:49,2420,42.8014,5.9826,13.2975,4.42211,2453.582,36.8223
2023-11-27T01:57:49,2420,42.8014,5.9826,13.2970,4.42239,2453.604,36.8254
2023-11-27T02:00:49,2420,42.8014,5.9826,13.2973,4.42311,2453.582,36.8319
2023-11-27T02:03:49,2420,42.8014,5.9826,13.2973,4.42305,2453.604,36.8313
2023-11-27T02:06:49,2420,42.8014,5.9826,13.2973,4.42410,2453.604,36.8411
2023-11-27T02:09:49,2420,42.8014,5.9826,13.2970,4.42402,2453.567,36.8406
2023-11-27T02:12:49,2420,42.8014,5.9826,13.2973,4.42437,2453.604,36.8437
2023-11-27T02:15:49,2420,42.8014,5.9826,13.2972,4.42461,2453.627,36.8460
2023-11-27T02:18:49,2420,42.8014,5.9826,13.2968,4.42470,2453.604,36.8472
2023-11-27T02:21:49,2420,42.8014,5.9826,13.2970,4.42491,2453.612,36.8490
2023-11-27T02:24:49,2420,42.8014,5.9826,13.2974,4.42536,2453.582,36.8529
2023-11-27T02:27:50,2420,42.8014,5.9826,13.2973,4.42531,2453.604,36.8524
2023-11-27T02:30:49,2420,42.8014,5.9826,13.2975,4.42555,2453.627,36.8546
2023-11-27T02:33:49,2420,42.8014,5.9826,13.2972,4.42592,2453.619,36.8583
2023-11-27T02:36:49,2420,42.8014,5.9826,13.2972,4.42638,2453.590,36.8626
2023-11-27T02:39:49,2420,42.8014,5.9826,13.2969,4.42650,2453.604,36.8640
2023-11-27T02:42:49,2420,42.8014,5.9826,13.2973,4.42673,2453.582,36.8658
2023-11-27T02:45:49,2420,42.8014,5.9826,13.2971,4.42685,2453.627,36.8670
2023-11-27T02:48:49,2420,42.8014,5.9826,13.2973,4.42711,2453.604,36.8694
2023-11-27T02:51:49,2420,42.8014,5.9826,13.2972,4.42718,2453.627,36.8701
2023-11-27T02:54:49,2420,42.8014,5.9826,13.2975,4.42743,2453.604,36.8722
2023-11-27T02:57:49,2420,42.8014,5.9826,13.2971,4.42757,2453.672,36.8738
2023-11-27T03:00:49,2420,42.8014,5.9826,13.2973,4.42768,2453.627,36.8746
2023-11-27T03:03:49,2420,42.8014,5.9826,13.2973,4.42778,2453.649,36.8756
2023-11-27T03:06:49,2420,42.8014,5.9826,13.2973,4.42788,2453.649,36.8765
2023-11-27T03:09:49,2420,42.8014,5.9826,13.2976,4.42805,2453.627,36.8778
2023-11-27T03:12:49,2420,42.8014,5.9826,13.2978,4.42838,2453.664,36.8807
2023-11-27T03:15:49,2420,42.8014,5.9826,13.2974,4.42825,2453.627,36.8799
2023-11-27T03:18:49,2420,42.8014,5.9826,13.2974,4.42812,2453.649,36.8787
2023-11-27T03:21:49,2420,42.8014,5.9826,13.2972,4.42855,2453.657,36.8829
2023-11-27T03:24:49,2420,42.8014,5.9826,13.2974,4.42824,2453.695,36.8798
2023-11-27T03:27:49,2420,42.8014,5.9826,13.2970,4.42837,2453.672,36.8814
2023-11-27T03:30:50,2420,42.8014,5.9826,13.2970,4.42846,2453.664,36.8823
2023-11-27T03:33:49,2420,42.8014,5.9826,13.2971,4.42848,2453.672,36.8823
2023-11-27T03:36:49,2420,42.8014,5.9826,13.2975,4.42845,2453.672,36.8817
2023-11-27T03:39:49,2420,42.8014,5.9826,13.2973,4.42855,2453.672,36.8828
2023-11-27T03:42:49,2420,42.8014,5.9826,13.2975,4.42839,2453.680,36.8811
2023-11-27T03:45:49,2420,42.8014,5.9826,13.2975,4.42854,2453.635,36.8826
2023-11-27T03:48:49,2420,42.8014,5.9826,13.2970,4.42871,2453.695,36.8846
2023-11-27T03:51:49,2420,42.8014,5.9826,13.2975,4.42866,2453.695,36.8837
2023-11-27T03:54:49,2420,42.8014,5.9826,13.2975,4.42887,2453.695,36.8856
2023-11-27T03:57:50,2420,42.8014,5.9826,13.2972,4.42875,2453.695,36.8848
2023-11-27T04:00:49,2420,42.8014,5.9826,13.2975,4.42866,2453.732,36.8836
2023-11-27T04:03:49,2420,42.8014,5.9826,13.2975,4.42885,2453.695,36.8855
2023-11-27T04:06:49,2420,42.8014,5.9826,13.2972,4.42878,2453.717,36.8851
2023-11-27T04:09:49,2420,42.8014,5.9826,13.2972,4.42893,2453.695,36.8865
2023-11-27T04:12:49,2420,42.8014,5.9826,13.2975,4.42901,2453.695,36.8869
2023-11-27T04:15:49,2420,42.8014,5.9826,13.2974,4.42876,2453.740,36.8847
2023-11-27T04:18:49,2420,42.8014,5.9826,13.2972,4.42917,2453.732,36.8887
2023-11-27T04:21:49,2420,42.8014,5.9826,13.2973,4.42924,2453.740,36.8893
2023-11-27T04:24:49,2420,42.8014,5.9826,13.2972,4.42925,2453.725,36.8895
2023-11-27T04:27:49,2420,42.8014,5.9826,13.2973,4.42923,2453.717,36.8892
2023-11-27T04:30:49,2420,42.8014,5.9826,13.2972,4.42902,2453.717,36.8873
2023-11-27T04:33:49,2420,42.8014,5.9826,13.2970,4.42901,2453.762,36.8874
2023-11-27T04:36:49,2420,42.8014,5.9826,13.2974,4.42942,2453.740,36.8909
2023-11-27T04:39:49,2420,42.8014,5.9826,13.2973,4.42939,2453.740,36.8906
2023-11-27T04:42:49,2420,42.8014,5.9826,13.2972,4.42961,2453.725,36.8928
2023-11-27T04:45:49,2420,42.8014,5.9826,13.2975,4.42976,2453.740,36.8940
2023-11-27T04:48:49,2420,42.8014,5.9826,13.2974,4.42948,2453.740,36.8915
2023-11-27T04:51:49,2420,42.8014,5.9826,13.2975,4.42972,2453.762,36.8936
2023-11-27T04:54:49,2420,42.8014,5.9826,13.2979,4.42953,2453.740,36.8913
2023-11-27T04:57:49,2420,42.8014,5.9826,13.2976,4.42918,2453.777,36.8884
2023-11-27T05:00:50,2420,42.8014,5.9826,13.2971,4.42974,2453.762,36.8942
2023-11-27T05:03:49,2420,42.8014,5.9826,13.2976,4.42998,2453.762,36.8959
2023-11-27T05:06:49,2420,42.8014,5.9826,13.2974,4.43002,2453.770,36.8965
2023-11-27T05:09:49,2420,42.8014,5.9826,13.2975,4.42974,2453.785,36.8937
2023-11-27T05:12:49,2420,42.8014,5.9826,13.2978,4.43004,2453.807,36.8963
2023-11-27T05:15:49,2420,42.8014,5.9826,13.2974,4.42997,2453.785,36.8960
2023-11-27T05:18:49,2420,42.8014,5.9826,13.2975,4.43009,2453.830,36.8971
2023-11-27T05:21:49,2420,42.8014,5.9826,13.2974,4.43008,2453.830,36.8970
2023-11-27T05:24:49,2420,42.8014,5.9826,13.2973,4.43028,2453.822,36.8989
2023-11-27T05:27:49,2420,42.8014,5.9826,13.2973,4.43023,2453.785,36.8985
2023-11-27T05:30:49,2420,42.8014,5.9826,13.2978,4.43013,2453.785,36.8972
2023-11-27T05:33:49,2420,42.8014,5.9826,13.2974,4.43010,2453.807,36.8972
2023-11-27T05:36:49,2420,42.8014,5.9826,13.2977,4.43048,2453.807,36.9005
2023-11-27T05:39:49,2420,42.8014,5.9826,13.2974,4.43088,2453.807,36.9045
2023-11-27T05:42:49,2420,42.8014,5.9826,13.2976,4.43092,2453.815,36.9047
2023-11-27T05:45:49,2420,42.8014,5.9826,13.2975,4.43083,2453.785,36.9039
2023-11-27T05:48:49,2420,42.8014,5.9826,13.2975,4.43080,2453.807,36.9037
2023-11-27T05:51:49,2420,42.8014,5.9826,13.2973,4.43057,2453.807,36.9016
2023-11-27T05:54:49,2420,42.8014,5.9826,13.2977,4.43053,2453.853,36.9010
2023-11-27T05:57:50,2420,42.8014,5.9826,13.2975,4.43062,2453.830,36.9020
2023-11-27T06:00:49,2420,42.8014,5.9826,13.2976,4.43074,2453.853,36.9030
2023-11-27T06:03:49,2420,42.8014,5.9826,13.2974,4.43090,2453.830,36.9047
2023-11-27T06:06:49,2420,42.8014,5.9826,13.2973,4.43110,2453.830,36.9066
2023-11-27T06:09:49,2420,42.8014,5.9826,13.2975,4.43109,2453.853,36.9064
2023-11-27T06:12:49,2420,42.8014,5.9826,13.2976,4.43121,2453.830,36.9074
2023-11-27T06:15:49,2420,42.8014,5.9826,13.2976,4.43131,2453.815,36.9083
2023-11-27T06:18:49,2420,42.8014,5.9826,13.2975,4.43121,2453.830,36.9075
2023-11-27T06:21:50,2420,42.8014,5.9826,13.2979,4.43352,2453.830,36.9288
2023-11-27T06:24:49,2420,42.8014,5.9826,13.2972,4.43346,2453.830,36.9289
2023-11-27T06:27:49,2420,42.8014,5.9826,13.2976,4.43364,2453.830,36.9302
2023-11-27T06:30:49,2420,42.8014,5.9826,13.2974,4.43373,2453.845,36.9312
2023-11-27T06:33:50,2420,42.8014,5.9826,13.2978,4.43399,2453.807,36.9334
2023-11-27T06:36:49,2420,42.8014,5.9826,13.2976,4.43378,2453.853,36.9315
2023-11-27T06:39:49,2420,42.8014,5.9826,13.2975,4.43373,2453.853,36.9311
2023-11-27T06:42:49,2420,42.8014,5.9826,13.2971,4.43403,2453.830,36.9343
2023-11-27T06:45:49,2420,42.8014,5.9826,13.2973,4.43398,2453.845,36.9337
2023-11-27T06:48:49,2420,42.8014,5.9826,13.2979,4.43398,2453.853,36.9331
2023-11-27T06:51:49,2420,42.8014,5.9826,13.2977,4.43421,2453.830,36.9354
2023-11-27T06:54:49,2420,42.8014,5.9826,13.2979,4.43401,2453.853,36.9334
2023-11-27T06:57:49,2420,42.8014,5.9826,13.2978,4.43410,2453.838,36.9343
2023-11-27T07:00:49,2420,42.8014,5.9826,13.2978,4.43405,2453.830,36.9339
2023-11-27T07:03:49,2420,42.8014,5.9826,13.2975,4.43405,2453.830,36.9341
2023-11-27T07:06:49,2420,42.8014,5.9826,13.2979,4.43415,2453.815,36.9346
2023-11-27T07:09:49,2420,42.8014,5.9826,13.2974,4.43414,2453.830,36.9351
2023-11-27T07:12:49,2420,42.8014,5.9826,13.2977,4.43413,2453.830,36.9348
2023-11-27T07:15:49,2420,42.8014,5.9826,13.2975,4.43421,2453.845,36.9357
2023-11-27T07:18:49,2420,42.8014,5.9826,13.2975,4.43402,2453.807,36.9340
2023-11-27T07:21:49,2420,42.8014,5.9826,13.2971,4.43471,2453.830,36.9407
2023-11-27T07:24:49,2420,42.8014,5.9826,13.2974,4.43432,2453.853,36.9368
2023-11-27T07:27:49,2420,42.8014,5.9826,13.2976,4.43441,2453.830,36.9374
2023-11-27T07:30:49,2420,42.8014,5.9826,13.2974,4.43415,2453.807,36.9352
2023-11-27T07:33:49,2420,42.8014,5.9826,13.2973,4.43456,2453.830,36.9392
2023-11-27T07:36:49,2420,42.8014,5.9826,13.2976,4.43458,2453.830,36.9390
2023-11-27T07:39:49,2420,42.8014,5.9826,13.2977,4.43454,2453.807,36.9386
2023-11-27T07:42:49,2420,42.8014,5.9826,13.2980,4.43409,2453.853,36.9340
2023-11-27T07:45:49,2420,42.8014,5.9826,13.2975,4.43461,2453.807,36.9394
2023-11-27T07:48:49,2420,42.8014,5.9826,13.2975,4.43436,2453.853,36.9370
2023-11-27T07:51:49,2420,42.8014,5.9826,13.2975,4.43444,2453.853,36.9378
2023-11-27T07:54:50,2420,42.8014,5.9826,13.2977,4.43509,2453.815,36.9438
2023-11-27T07:57:49,2420,42.8014,5.9826,13.2979,4.43499,2453.845,36.9425
2023-11-27T08:00:49,2420,42.8014,5.9826,13.2975,4.43478,2453.822,36.9411
2023-11-27T08:03:49,2420,42.8014,5.9826,13.2979,4.43470,2453.815,36.9399
2023-11-27T08:06:49,2420,42.8014,5.9826,13.2975,4.43466,2453.853,36.9398
2023-11-27T08:09:49,2420,42.8014,5.9826,13.2976,4.43485,2453.830,36.9415
2023-11-27T08:12:49,2420,42.8014,5.9826,13.2973,4.43508,2453.830,36.9440
2023-11-27T08:15:49,2420,42.8014,5.9826,13.2978,4.43525,2453.830,36.9451
2023-11-27T08:18:49,2420,42.8014,5.9826,13.2974,4.43509,2453.830,36.9440
2023-11-27T08:21:49,2420,42.8014,5.9826,13.2979,4.43499,2453.807,36.9425
2023-11-27T08:24:49,2420,42.8014,5.9826,13.2979,4.43497,2453.807,36.9424
2023-11-27T08:27:49,2420,42.8014,5.9826,13.2978,4.43460,2453.815,36.9391
2023-11-27T08:30:49,2420,42.8014,5.9826,13.2979,4.43511,2453.830,36.9437
2023-11-27T08:33:49,2420,42.8014,5.9826,13.2975,4.43480,2453.830,36.9412
2023-11-27T08:36:49,2420,42.8014,5.9826,13.2979,4.43501,2453.830,36.9428
2023-11-27T08:39:49,2420,42.8014,5.9826,13.2975,4.43485,2453.830,36.9417
2023-11-27T08:42:49,2420,42.8014,5.9826,13.2975,4.43488,2453.807,36.9420
2023-11-27T08:45:49,2420,42.8014,5.9826,13.2978,4.43496,2453.807,36.9423
2023-11-27T08:48:49,2420,42.8014,5.9826,13.2979,4.43507,2453.807,36.9433
2023-11-27T08:51:49,2420,42.8014,5.9826,13.2975,4.43481,2453.807,36.9413
2023-11-27T08:54:49,2420,42.8014,5.9826,13.2977,4.43527,2453.830,36.9454
2023-11-27T08:57:49,2420,42.8014,5.9826,13.2975,4.43509,2453.807,36.9439
2023-11-27T09:00:49,2420,42.8014,5.9826,13.2978,4.43513,2453.793,36.9441
2023-11-27T09:03:49,2420,42.8014,5.9826,13.2975,4.43538,2453.770,36.9466
2023-11-27T09:06:49,2420,42.8014,5.9826,13.2978,4.43525,2453.785,36.9452
2023-11-27T09:09:49,2420,42.8014,5.9826,13.2975,4.43507,2453.830,36.9437
2023-11-27T09:12:49,2420,42.8014,5.9826,13.2976,4.43522,2453.807,36.9450
2023-11-27T09:15:49,2420,42.8014,5.9826,13.2979,4.43514,2453.793,36.9440
2023-11-27T09:18:49,2420,42.8014,5.9826,13.2977,4.43513,2453.807,36.9441
2023-11-27T09:21:49,2420,42.8014,5.9826,13.2977,4.43507,2453.807,36.9436
2023-11-27T09:24:49,2420,42.8014,5.9826,13.2978,4.43544,2453.785,36.9470
2023-11-27T09:27:49,2420,42.8014,5.9826,13.2978,4.43534,2453.785,36.9460
2023-11-27T09:30:49,2420,42.8014,5.9826,13.2977,4.43553,2453.807,36.9479
2023-11-27T09:33:49,2420,42.8014,5.9826,13.2978,4.43567,2453.793,36.9490
2023-11-27T09:36:49,2420,42.8014,5.9826,13.2976,4.43553,2453.807,36.9479
2023-11-27T09:39:49,2420,42.8014,5.9826,13.2977,4.43549,2453.785,36.9475
2023-11-27T09:42:49,2420,42.8014,5.9826,13.2979,4.43533,2453.807,36.9458
2023-11-27T09:45:49,2420,42.8014,5.9826,13.2978,4.43472,2453.807,36.9402
2023-11-27T09:48:49,2420,42.8014,5.9826,13.2973,4.43541,2453.785,36.9471
2023-11-27T09:51:50,2420,42.8014,5.9826,13.2979,4.43522,2453.762,36.9448
2023-11-27T09:54:49,2420,42.8014,5.9826,13.2982,4.43428,2453.785,36.9357
2023-11-27T09:57:49,2420,42.8014,5.9826,13.2978,4.43438,2453.785,36.9369
2023-11-27T10:00:49,2420,42.8014,5.9826,13.2979,4.43486,2453.770,36.9414
2023-11-27T10:03:49,2420,42.8014,5.9826,13.2973,4.43558,2453.807,36.9487
2023-11-27T10:06:49,2420,42.8014,5.9826,13.2973,4.43614,2453.785,36.9540
2023-11-27T10:09:49,2420,42.8014,5.9826,13.2977,4.43710,2453.762,36.9626
2023-11-27T10:12:49,2420,42.8014,5.9826,13.2978,4.43700,2453.785,36.9615
2023-11-27T10:15:49,2420,42.8014,5.9826,13.2978,4.43689,2453.785,36.9605
2023-11-27T10:18:49,2420,42.8014,5.9826,13.2975,4.43649,2453.762,36.9571
2023-11-27T10:21:49,2420,42.8014,5.9826,13.2976,4.43641,2453.785,36.9562
2023-11-27T10:24:49,2420,42.8014,5.9826,13.2980,4.43777,2453.762,36.9686
2023-11-27T10:27:49,2420,42.8014,5.9826,13.2975,4.43692,2453.785,36.9611
2023-11-27T10:30:49,2420,42.8014,5.9826,13.2975,4.43688,2453.754,36.9607
2023-11-27T10:33:49,2420,42.8014,5.9826,13.2976,4.43770,2453.762,36.9683
2023-11-27T10:36:49,2420,42.8014,5.9826,13.2975,4.43753,2453.762,36.9669
2023-11-27T10:39:49,2420,42.8014,5.9826,13.2977,4.43749,2453.762,36.9663
2023-11-27T10:42:49,2420,42.8014,5.9826,13.2979,4.43766,2453.740,36.9677
2023-11-27T10:45:49,2420,42.8014,5.9826,13.2979,4.43874,2453.717,36.9778
2023-11-27T10:48:49,2420,42.8014,5.9826,13.2976,4.43812,2453.740,36.9722
2023-11-27T10:51:49,2420,42.8014,5.9826,13.2979,4.43797,2453.740,36.9705
2023-11-27T10:54:49,2420,42.8014,5.9826,13.2979,4.43799,2453.732,36.9707
2023-11-27T10:57:49,2420,42.8014,5.9826,13.2978,4.43794,2453.717,36.9703
2023-11-27T11:00:49,2420,42.8014,5.9826,13.2977,4.43785,2453.740,36.9696
2023-11-27T11:03:49,2420,42.8014,5.9826,13.2977,4.43845,2453.717,36.9753
2023-11-27T11:06:49,2420,42.8014,5.9826,13.2979,4.43820,2453.740,36.9727
2023-11-27T11:09:49,2420,42.8014,5.9826,13.2974,4.43796,2453.762,36.9709
2023-11-27T11:12:49,2420,42.8014,5.9826,13.2973,4.43812,2453.717,36.9725
2023-11-27T11:15:49,2420,42.8014,5.9826,13.2974,4.43764,2453.732,36.9679
2023-11-27T11:18:49,2420,42.8014,5.9826,13.2975,4.43759,2453.717,36.9674
2023-11-27T11:21:49,2420,42.8014,5.9826,13.2978,4.43852,2453.740,36.9758
2023-11-27T11:24:49,2420,42.8014,5.9826,13.2975,4.43881,2453.717,36.9788
2023-11-27T11:27:49,2420,42.8014,5.9826,13.2977,4.43869,2453.717,36.9776
2023-11-27T11:30:49,2420,42.8014,5.9826,13.2975,4.43828,2453.695,36.9739
2023-11-27T11:33:49,2420,42.8014,5.9826,13.2978,4.43836,2453.717,36.9743
2023-11-27T11:36:49,2420,42.8014,5.9826,13.2975,4.43844,2453.695,36.9754
2023-11-27T11:39:49,2420,42.8014,5.9826,13.2978,4.43831,2453.672,36.9738
2023-11-27T11:42:49,2420,42.8014,5.9826,13.2977,4.43823,2453.672,36.9732
2023-11-27T11:45:49,2420,42.8014,5.9826,13.2975,4.43817,2453.717,36.9728
2023-11-27T11:48:49,2420,42.8014,5.9826,13.2974,4.43820,2453.672,36.9733
2023-11-27T11:51:49,2420,42.8014,5.9826,13.2975,4.43832,2453.717,36.9743
2023-11-27T11:54:49,2420,42.8014,5.9826,13.2975,4.43834,2453.709,36.9745
2023-11-27T11:57:49,2420,42.8014,5.9826,13.2974,4.43828,2453.695,36.9740
2023-11-27T12:00:49,2420,42.8014,5.9826,13.2974,4.43871,2453.680,36.9780
2023-11-27T12:03:49,2420,42.8014,5.9826,13.2975,4.43878,2453.695,36.9785
2023-11-27T12:06:49,2420,42.8014,5.9826,13.2976,4.43855,2453.672,36.9763
2023-11-27T12:09:49,2420,42.8014,5.9826,13.2976,4.43878,2453.695,36.9784
2023-11-27T12:12:49,2420,42.8014,5.9826,13.2978,4.43896,2453.709,36.9800
2023-11-27T12:15:49,2420,42.8014,5.9826,13.2978,4.43927,2453.649,36.9829
2023-11-27T12:18:49,2420,42.8014,5.9826,13.2974,4.43962,2453.672,36.9866
2023-11-27T12:21:49,2420,42.8014,5.9826,13.2976,4.43938,2453.680,36.9841
2023-11-27T12:24:49,2420,42.8014,5.9826,13.2976,4.43938,2453.680,36.9841
2023-11-27T12:27:49,2420,42.8014,5.9826,13.2975,4.43930,2453.672,36.9835
2023-11-27T12:30:49,2420,42.8014,5.9826,13.2975,4.43953,2453.672,36.9856
2023-11-27T12:33:49,2420,42.8014,5.9826,13.2978,4.43934,2453.695,36.9835
2023-11-27T12:36:49,2420,42.8014,5.9826,13.2979,4.43933,2453.695,36.9834
2023-11-27T12:39:49,2420,42.8014,5.9826,13.2975,4.43949,2453.672,36.9852
2023-11-27T12:42:49,2420,42.8014,5.9826,13.2977,4.43962,2453.695,36.9863
2023-11-27T12:45:49,2420,42.8014,5.9826,13.2976,4.43957,2453.649,36.9859
2023-11-27T12:48:49,2420,42.8014,5.9826,13.2973,4.43937,2453.649,36.9843
2023-11-27T12:51:49,2420,42.8014,5.9826,13.2979,4.43929,2453.649,36.9829
2023-11-27T12:54:49,2420,42.8014,5.9826,13.2975,4.43956,2453.687,36.9859
2023-11-27T12:57:49,2420,42.8014,5.9826,13.2976,4.43946,2453.672,36.9849
2023-11-27T13:00:49,2420,42.8014,5.9826,13.2978,4.43955,2453.695,36.9855
2023-11-27T13:03:49,2420,42.8014,5.9826,13.2975,4.43958,2453.672,36.9861
2023-11-27T13:06:49,2420,42.8014,5.9826,13.2977,4.44029,2453.649,36.9926
2023-11-27T13:09:49,2420,42.8014,5.9826,13.2973,4.43991,2453.627,36.9893
2023-11-27T13:12:49,2420,42.8014,5.9826,13.2977,4.43987,2453.649,36.9886
2023-11-27T13:15:49,2420,42.8014,5.9826,13.2978,4.43908,2453.687,36.9811
2023-11-27T13:18:49,2420,42.8014,5.9826,13.2979,4.43947,2453.635,36.9846
2023-11-27T13:21:49,2420,42.8014,5.9826,13.2974,4.43930,2453.672,36.9835
2023-11-27T13:24:49,2420,42.8014,5.9826,13.2979,4.43991,2453.635,36.9887
2023-11-27T13:27:49,2420,42.8014,5.9826,13.2973,4.44001,2453.649,36.9903
2023-11-27T13:30:50,2420,42.8014,5.9826,13.2979,4.44059,2453.649,36.9952
2023-11-27T13:33:49,2420,42.8014,5.9826,13.2975,4.44033,2453.687,36.9931
2023-11-27T13:36:49,2420,42.8014,5.9826,13.2978,4.43960,2453.612,36.9860
2023-11-27T13:39:49,2420,42.8014,5.9826,13.2975,4.43960,2453.627,36.9863
2023-11-27T13:42:49,2420,42.8014,5.9826,13.2975,4.43976,2453.641,36.9878
2023-11-27T13:45:49,2420,42.8014,5.9826,13.2974,4.43959,2453.612,36.9863
2023-11-27T13:48:49,2420,42.8014,5.9826,13.2975,4.44007,2453.649,36.9907
2023-11-27T13:51:49,2420,42.8014,5.9826,13.2977,4.44004,2453.627,36.9902
2023-11-27T13:54:49,2420,42.8014,5.9826,13.2976,4.43988,2453.627,36.9888
2023-11-27T13:57:49,2420,42.8014,5.9826,13.2977,4.44008,2453.627,36.9906
2023-11-27T14:00:50,2420,42.8014,5.9826,13.2978,4.44000,2453.627,36.9898
2023-11-27T14:03:49,2420,42.8014,5.9826,13.2976,4.44006,2453.627,36.9905
2023-11-27T14:06:49,2420,42.8014,5.9826,13.2978,4.44058,2453.604,36.9952
2023-11-27T14:09:49,2420,42.8014,5.9826,13.2977,4.44001,2453.649,36.9900
2023-11-27T14:12:49,2420,42.8014,5.9826,13.2976,4.44155,2453.664,37.0044
2023-11-27T14:15:49,2420,42.8014,5.9826,13.2978,4.44038,2453.590,36.9933
2023-11-27T14:18:49,2420,42.8014,5.9826,13.2978,4.44067,2453.627,36.9960
2023-11-27T14:21:49,2420,42.8014,5.9826,13.2976,4.44029,2453.641,36.9926
2023-11-27T14:24:49,2420,42.8014,5.9826,13.2979,4.43979,2453.627,36.9877
2023-11-27T14:27:49,2420,42.8014,5.9826,13.2978,4.44031,2453.649,36.9926
2023-11-27T14:30:49,2420,42.8014,5.9826,13.2975,4.44011,2453.627,36.9911
2023-11-27T14:33:49,2420,42.8014,5.9826,13.2978,4.44054,2453.604,36.9948
2023-11-27T14:36:49,2420,42.8014,5.9826,13.2980,4.44043,2453.649,36.9935
2023-11-27T14:39:49,2420,42.8014,5.9826,13.2976,4.44055,2453.627,36.9951
2023-11-27T14:42:49,2420,42.8014,5.9826,13.2978,4.44078,2453.627,36.9971
2023-11-27T14:45:49,2420,42.8014,5.9826,13.2972,4.44117,2453.649,37.0013
2023-11-27T14:48:49,2420,42.8014,5.9826,13.2978,4.44065,2453.635,36.9958
2023-11-27T14:51:50,2420,42.8014,5.9826,13.2975,4.44075,2453.627,36.9971
2023-11-27T14:54:49,2420,42.8014,5.9826,13.2979,4.44119,2453.627,37.0008
2023-11-27T14:57:49,2420,42.8014,5.9826,13.2977,4.44005,2453.627,36.9904
2023-11-27T15:00:49,2420,42.8014,5.9826,13.2978,4.44043,2453.627,36.9938
2023-11-27T15:03:49,2420,42.8014,5.9826,13.2978,4.44045,2453.604,36.9940
2023-11-27T15:06:49,2420,42.8014,5.9826,13.2976,4.44082,2453.627,36.9976
2023-11-27T15:09:49,2420,42.8014,5.9826,13.2976,4.44069,2453.627,36.9964
2023-11-27T15:12:49,2420,42.8014,5.9826,13.2975,4.44048,2453.672,36.9945
2023-11-27T15:15:49,2420,42.8014,5.9826,13.2978,4.44122,2453.612,37.0012
2023-11-27T15:18:49,2420,42.8014,5.9826,13.2974,4.44027,2453.641,36.9927
2023-11-27T15:21:49,2420,42.8014,5.9826,13.2979,4.44026,2453.672,36.9921
2023-11-27T15:24:49,2420,42.8014,5.9826,13.2976,4.44025,2453.635,36.9923
2023-11-27T15:27:49,2420,42.8014,5.9826,13.2976,4.44083,2453.649,36.9977
2023-11-27T15:30:49,2420,42.8014,5.9826,13.2977,4.44051,2453.627,36.9947
2023-11-27T15:33:49,2420,42.8014,5.9826,13.2978,4.44086,2453.627,36.9979
2023-11-27T15:36:49,2420,42.8014,5.9826,13.2977,4.44147,2453.649,37.0036
2023-11-27T15:39:49,2420,42.8014,5.9826,13.2975,4.44126,2453.672,37.0018
2023-11-27T15:42:49,2420,42.8014,5.9826,13.2975,4.44090,2453.627,36.9984
2023-11-27T15:45:49,2420,42.8014,5.9826,13.2984,4.44143,2453.649,37.0026
2023-11-27T15:48:49,2420,42.8014,5.9826,13.2977,4.44265,2453.635,37.0148
2023-11-27T15:51:49,2420,42.8014,5.9826,13.2977,4.44142,2453.672,37.0031
2023-11-27T15:54:49,2420,42.8014,5.9826,13.2979,4.44061,2453.649,36.9954
2023-11-27T15:57:49,2420,42.8014,5.9826,13.2978,4.44113,2453.687,37.0003
2023-11-27T16:00:50,2420,42.8014,5.9826,13.2975,4.44302,2453.672,37.0183
2023-11-27T16:03:49,2420,42.8014,5.9826,13.2982,4.44193,2453.649,37.0075